Regional Weather Roundup
Issued by NWS Lake Charles, LA

Home | Current Version | Previous Version | Text Only | Print | Product List | Glossary On
Versions: 1 2 3 4 5 6 7 8 9 10 11 12 13 14 15 16 17 18 19 20 21 22 23 24 25 26 27 28 29 30 31 32 33 34 35 36 37 38 39 40 41 42 43 44 45 46 47 48 49 50
000
ASUS44 KLCH 191210
RWRLCH
RWRLCH
REGIONAL WEATHER ROUNDUP
NATIONAL WEATHER SERVICE LAKE CHARLES LA
700 AM CDT SUN APR 19 2015

Note: "fair" indicates few or no clouds below 12,000 feet with no
significant weather and/or obstructions to visibility.


ACROSS SOUTHEAST TEXAS

CITY           SKY/WX    TMP DP  RH WIND       PRES   REMARKS
BEAUMONT       CLEAR     59  58  96 CALM      29.80S
BEAUMONT CITY    N/A     56  56 100 CALM      29.81R
ORANGE         FOG       58  55  92 CALM      29.82R VSB 1
JASPER         FOG       59  59  98 CALM      29.83R VSB<1/4
$$

ACROSS CENTRAL LOUISIANA

CITY           SKY/WX    TMP DP  RH WIND       PRES   REMARKS
LEESVILLE      PTCLDY    59  57  94 SW3       29.78R FOG
FULLERTON        N/A     60  56  86 CALM      29.76R
ALEXANDRIA INT CLEAR     60  60 100 W3        29.75R
ESLER FIELD    CLEAR     59  58  96 NW3       29.76R
DERIDDER         N/A     58  57  96 CALM      29.81R
OAKDALE        MOSUNNY   59  58  96 CALM      29.77S
OPELOUSAS        N/A    N/A N/A N/A W3        29.76R
$$

ACROSS SOUTHWEST AND SOUTH CENTRAL LOUISIANA

CITY           SKY/WX    TMP DP  RH WIND       PRES   REMARKS
SULPHUR        SUNNY     60  60 100 CALM      29.80S FOG
LAKE CHARLES   CLEAR     60  58  92 CALM      29.79R
CHENNAULT INT  CLEAR     61  61 100 SW3       29.79S
CAMERON PHI    SUNNY     66  61  82 CALM      29.82S
DEQUINCY         N/A     58  58 100 CALM      29.80S
JENNINGS         N/A     60  60  99 CALM      29.78S
LAFAYETTE      CLEAR     65  63  93 W5        29.75F
NEW IBERIA     CLEAR     66  64  93 CALM      29.75F
ABBEVILLE        N/A     62  61  98 CALM      29.76R
PATTERSON      PTCLDY    68  64  88 W7        29.79F
SALT POINT       N/A     70  67  90 VRB5      29.76F
$$

SELECTED SITES ACROSS THE REGION

CITY           SKY/WX    TMP DP  RH WIND       PRES   REMARKS
HOUSTON BUSH   PTCLDY    58  57  97 CALM      29.81R
HOUSTON HOBBY  CLEAR     61  59  93 CALM      29.80R
GALVESTON      CLEAR     68  63  84 S12       29.80F
COLLEGE STAT   CLEAR     58  57  97 MISG      29.79S
CONROE         CLEAR     56  54  93 CALM      29.81R
HUNTSVILLE     PTCLDY    58  57  97 CALM      29.80S
LUFKIN         FOG       61  57  87 S5        29.81R VSB 1/4
SHREVEPORT     CLOUDY    59  58  96 W7        29.79R FOG
MONROE         MOCLDY    60  59  96 SW6       29.75R
NATCHEZ MS     PTCLDY    64  61  88 SW10      29.73R
BATON ROUGE    CLEAR     68  66  93 S6        29.74F
N.O. INTL ARPT CLOUDY    71  68  90 W12       29.77F
SLIDELL        CLOUDY    72  70  93 VRB6      29.75F
$$

MARINE REPORTS

STATION/POSITION TIME  TEMP    WIND        PRES    VSBY  WAVE
                       AIR SEA DIR/SP/G                  HT/PER
                 (UTC) (F)     (DEG/KT/KT) (MB)    (MI)  (FT/S)
BUOY 30 S HIGH I 1150   69 71  170/ 10/ 12 1008.5F         2/ 5
SEA RIM ST PARK  1200   68     160/  4/  5 1009.5R
PORT ARTHUR      1100      71  160/  2/  5 1009.1R
SABINE PASS N    1100   67 72  150/  3/  4 1009.1R
TEXAS POINT      NOT AVBL
CALCASIEU PASS   1100   68 74  120/  2/  3   N/A
LK CHARLES BEACH 1100   62 71              1008.7R
MARSH ISLAND     NOT AVBL
FRESH WATER LOCK 1100   68 74  330/  3/  4 1008.5F
AMERADA PASS     1100   69 67  290/ 12/ 14 1008.5F
$$



USA.gov is the U.S. government's official web portal to all federal, state and local government web resources and services.